GW5989 Weather Reports


time (UTC)temp
C
wind
direction
speed
KPH
gust
KPH
rain 1hr
cm
rain 24hr
cm
rain mn
cm
humidity
%
barometer
mb
20260506215005 22 320 11.3 27.4 0.00 0.00 0.00 65 1011.6
20260506214508 23 23 14.5 27.4 0.00 0.00 0.00 64 1011.5
20260506214004 22 24 8.0 25.7 0.00 0.00 0.00 66 1011.6
20260506213507 22 33 14.5 22.5 0.00 0.00 0.00 66 1011.5
20260506213015 23 30 8.0 20.9 0.00 0.00 0.00 65 1011.5
20260506212505 23 26 9.7 25.7 0.00 0.00 0.00 66 1011.4
20260506212005 23 342 16.1 25.7 0.00 0.00 0.00 66 1011.5
20260506211521 23 17 11.3 22.5 0.00 0.00 0.00 67 1011.5
20260506211006 23 337 9.7 24.1 0.00 0.00 0.00 67 1011.5
20260506210508 23 14 16.1 24.1 0.00 0.00 0.00 68 1011.3
20260506210025 23 30 9.7 20.9 0.00 0.00 0.00 68 1011.5
20260506205500 23 5 6.4 17.7 0.00 0.00 0.00 67 1011.7
20260506205003 23 13 9.7 22.5 0.00 0.00 0.00 69 1011.8
20260506204511 23 335 9.7 22.5 0.00 0.00 0.00 69 1011.9
20260506204004 22 309 11.3 22.5 0.00 0.00 0.00 69 1011.9
20260506203506 23 18 8.0 24.1 0.00 0.00 0.00 69 1011.8
20260506203012 23 352 14.5 27.4 0.00 0.00 0.00 68 1011.9
20260506202504 24 282 9.7 25.7 0.00 0.00 0.00 69 1011.8
20260506202008 24 21 9.7 17.7 0.00 0.00 0.00 70 1011.5
20260506201519 24 360 8.0 19.3 0.00 0.00 0.00 69 1011.4
20260506201006 25 46 9.7 19.3 0.00 0.00 0.00 70 1011.3
20260506200508 25 68 9.7 19.3 0.00 0.00 0.00 71 1011.2
20260506200021 25 360 8.0 19.3 0.00 0.00 0.00 70 1011.2
20260506195506 25 27 12.9 17.7 0.00 0.00 0.00 70 1011.2
20260506195010 25 5 9.7 17.7 0.00 0.00 0.00 71 1011.2
20260506194514 25 304 6.4 16.1 0.00 0.00 0.00 70 1011.3
20260506194003 25 53 8.0 19.3 0.00 0.00 0.00 71 1011.2
20260506193503 25 15 8.0 19.3 0.00 0.00 0.00 73 1011.3
20260506193011 25 49 9.7 19.3 0.00 0.00 0.00 73 1011.3
20260506192508 25 48 9.7 17.7 0.00 0.00 0.00 72 1011.4
20260506192006 25 60 8.0 14.5 0.00 0.00 0.00 72 1011.5
20260506191516 25 45 8.0 14.5 0.00 0.00 0.00 71 1011.5
20260506191004 25 63 6.4 16.1 0.00 0.00 0.00 71 1011.5
20260506190509 25 340 8.0 16.1 0.00 0.00 0.00 70 1011.6
20260506190019 24 19 6.4 14.5 0.00 0.00 0.00 72 1011.5
20260506185505 24 61 8.0 14.5 0.00 0.00 0.00 72 1011.5
20260506185005 25 58 8.0 16.1 0.00 0.00 0.00 74 1011.4
20260506184521 24 32 9.7 14.5 0.00 0.00 0.00 75 1011.4
20260506184008 23 348 6.4 12.9 0.00 0.00 0.00 73 1011.5
20260506183504 23 48 6.4 16.1 0.00 0.00 0.00 73 1011.6
20260506183008 23 360 8.0 16.1 0.00 0.00 0.00 74 1011.6
20260506182504 23 34 8.0 14.5 0.00 0.00 0.00 77 1011.6
20260506182004 22 22 6.4 16.1 0.00 0.00 0.00 76 1011.5
20260506181512 22 44 6.4 16.1 0.00 0.00 0.00 75 1011.6
20260506181008 22 350 6.4 17.7 0.00 0.00 0.00 76 1011.7
20260506180512 22 352 8.0 17.7 0.00 0.00 0.00 78 1011.7
20260506180018 22 18 9.7 17.7 0.00 0.00 0.00 76 1011.9
20260506175506 22 80 9.7 17.7 0.00 0.00 0.00 78 1011.8
20260506175005 21 35 9.7 17.7 0.00 0.00 0.00 78 1011.9
20260506174525 21 5 8.0 19.3 0.00 0.00 0.00 78 1011.8
20260506174006 21 53 14.5 19.3 0.00 0.00 0.00 79 1011.8
20260506173507 21 42 9.7 20.9 0.00 0.00 0.00 80 1011.9
20260506173028 21 69 11.3 22.5 0.00 0.00 0.00 81 1011.8
20260506172505 20 51 9.7 22.5 0.00 0.00 0.00 79 1011.9
20260506172003 21 48 12.9 20.9 0.00 0.00 0.00 80 1012.2
20260506171512 20 52 8.0 19.3 0.00 0.00 0.00 80 1012.3
20260506171003 20 42 12.9 20.9 0.00 0.00 0.00 82 1012.2
20260506170506 20 19 11.3 22.5 0.00 0.00 0.00 82 1012.3
20260506165504 19 29 9.7 22.5 0.00 0.00 0.00 83 1012.4
20260506165007 19 352 12.9 22.5 0.00 0.00 0.00 84 1012.7
20260506164521 19 46 9.7 29.0 0.00 0.00 0.00 84 1012.9
20260506164009 19 23 9.7 29.0 0.00 0.00 0.00 83 1012.9
20260506163509 20 322 17.7 29.0 0.00 0.00 0.00 81 1013.0
20260506163048 21 352 14.5 29.0 0.00 0.00 0.00 80 1012.8
20260506162510 21 26 16.1 32.2 0.00 0.00 0.00 77 1012.8
20260506162013 23 26 16.1 32.2 0.00 0.00 0.00 74 1012.6
20260506161525 25 67 9.7 17.7 0.00 0.00 0.00 83 1012.3
20260506161003 25 38 4.8 8.0 0.00 0.00 0.00 84 1012.2
20260506160510 25 37 3.2 8.0 0.00 0.00 0.00 85 1012.3
20260506160020 25 48 4.8 8.0 0.00 0.00 0.00 85 1012.4
20260506155504 25 52 4.8 8.0 0.00 0.00 0.00 85 1012.3
20260506155007 25 32 4.8 8.0 0.00 0.00 0.00 86 1012.2
20260506154009 25 360 3.2 6.4 0.00 0.00 0.00 86 1011.9
20260506153509 25 57 3.2 6.4 0.00 0.00 0.00 85 1011.8
20260506152506 25 66 4.8 6.4 0.00 0.00 0.00 87 1011.5
20260506152009 25 67 3.2 6.4 0.00 0.00 0.00 87 1011.3
20260506151524 25 40 4.8 8.0 0.00 0.00 0.00 87 1011.2
20260506151010 24 76 4.8 8.0 0.00 0.00 0.00 87 1011.2
20260506150508 25 71 4.8 9.7 0.00 0.00 0.00 87 1011.1
20260506150016 25 113 4.8 9.7 0.00 0.00 0.00 87 1010.9
20260506145510 24 98 1.6 6.4 0.00 0.00 0.00 87 1010.9
20260506145007 24 100 3.2 8.0 0.00 0.00 0.00 88 1010.8
20260506144517 24 99 4.8 8.0 0.00 0.00 0.00 88 1010.7
20260506144004 24 94 4.8 6.4 0.00 0.00 0.00 88 1010.7
20260506143509 24 82 3.2 8.0 0.00 0.00 0.00 88 1010.4
20260506143028 24 123 4.8 8.0 0.00 0.00 0.00 89 1010.4
20260506142508 24 93 3.2 6.4 0.00 0.00 0.00 89 1010.5
20260506142010 23 58 1.6 4.8 0.00 0.00 0.00 89 1010.6
20260506141510 23 58 1.6 3.2 0.00 0.00 0.00 90 1010.9
20260506141004 23 58 1.6 3.2 0.00 0.00 0.00 89 1010.8
20260506140505 23 58 0.0 3.2 0.00 0.00 0.00 89 1010.7
20260506140013 23 117 1.6 3.2 0.00 0.00 0.00 89 1010.3
20260506135505 23 117 0.0 3.2 0.00 0.00 0.00 89 1010.1
20260506135008 23 117 1.6 4.8 0.00 0.00 0.00 89 1009.9
20260506134515 23 99 1.6 4.8 0.00 0.00 0.00 90 1009.9
20260506134009 23 109 0.0 6.4 0.00 0.00 0.00 90 1009.8
20260506133503 23 134 1.6 6.4 0.00 0.00 0.00 90 1009.7
20260506133018 23 88 3.2 9.7 0.00 0.00 0.00 90 1009.8
20260506132508 23 92 1.6 9.7 0.00 0.00 0.00 90 1009.7
20260506132009 23 110 3.2 6.4 0.00 0.00 0.00 90 1009.7
20260506131522 23 117 3.2 6.4 0.00 0.00 0.00 90 1009.6
20260506131007 23 98 3.2 6.4 0.00 0.00 0.00 90 1009.6
20260506130504 23 117 3.2 6.4 0.00 0.00 0.00 91 1009.6
20260506130007 23 118 0.0 6.4 0.00 0.00 0.00 91 1009.6
20260506125505 23 118 1.6 6.4 0.00 0.00 0.00 91 1009.6
20260506125004 23 107 3.2 4.8 0.00 0.00 0.00 91 1009.6
20260506124512 23 98 1.6 6.4 0.00 0.00 0.00 91 1009.6
20260506124005 23 111 3.2 6.4 0.00 0.00 0.00 90 1009.6
20260506123505 23 110 0.0 0.0 0.00 0.00 0.00 90 1009.7
20260506123017 23 110 0.0 0.0 0.00 0.00 0.00 90 1009.7
20260506122508 23 110 0.0 0.0 0.00 0.00 0.00 90 1009.7
20260506122006 23 110 0.0 0.0 0.00 0.00 0.00 90 1009.7
20260506121519 23 110 0.0 0.0 0.00 0.00 0.00 90 1009.6
20260506121010 23 110 0.0 3.2 0.00 0.00 0.00 90 1009.6
20260506120511 23 110 0.0 3.2 0.00 0.00 0.00 90 1009.6
20260506120027 23 110 0.0 3.2 0.00 0.00 0.00 90 1009.4
20260506115506 23 110 0.0 3.2 0.00 0.00 0.00 90 1009.3
20260506115006 23 110 0.0 3.2 0.00 0.00 0.00 90 1009.5
20260506114512 23 110 0.0 3.2 0.00 0.00 0.00 90 1009.4
20260506114005 23 110 0.0 3.2 0.00 0.00 0.00 89 1009.4
20260506113507 23 110 0.0 3.2 0.00 0.00 0.00 89 1009.4
20260506113017 23 110 0.0 3.2 0.00 0.00 0.00 89 1009.3
20260506112506 23 110 0.0 4.8 0.00 0.00 0.00 89 1009.3
20260506112004 23 110 1.6 4.8 0.00 0.00 0.00 89 1009.3
20260506111517 23 123 0.0 4.8 0.00 0.00 0.00 89 1009.3
20260506111008 23 155 1.6 6.4 0.00 0.00 0.00 89 1009.3
20260506110509 23 133 0.0 6.4 0.00 0.00 0.00 89 1009.2
20260506110026 23 135 1.6 6.4 0.00 0.00 0.00 89 1009.3
20260506105508 23 157 3.2 9.7 0.00 0.00 0.00 88 1009.3
20260506105009 23 141 0.0 9.7 0.00 0.00 0.00 88 1009.2
20260506104525 23 271 0.0 4.8 0.00 0.00 0.00 88 1009.2
20260506104004 23 214 0.0 11.3 0.00 0.00 0.00 88 1009.0
20260506103504 23 149 1.6 11.3 0.00 0.00 0.00 88 1008.9
20260506103014 23 132 0.0 8.0 0.00 0.00 0.00 88 1008.9
20260506102504 23 183 3.2 9.7 0.00 0.00 0.00 88 1008.9
20260506102004 23 163 1.6 14.5 0.00 0.00 0.00 88 1008.9
20260506101519 23 170 1.6 14.5 0.00 0.00 0.00 89 1008.9
20260506100021 23 325 1.6 9.7 0.00 0.00 0.00 89 1008.6
20260506095508 23 186 3.2 9.7 0.00 0.00 0.00 89 1008.6
20260506095009 23 174 3.2 8.0 0.00 0.00 0.00 89 1008.5
20260506094527 23 188 1.6 8.0 0.00 0.00 0.00 89 1008.5
20260506094009 23 193 1.6 11.3 0.00 0.00 0.00 89 1008.5
20260506093512 23 177 3.2 11.3 0.00 0.00 0.00 89 1008.3
20260506093015 23 192 1.6 11.3 0.00 0.00 0.00 89 1008.3
20260506092505 23 273 1.6 11.3 0.00 0.00 0.00 89 1008.3
20260506092004 23 131 1.6 8.0 0.00 0.00 0.00 89 1008.3
20260506091516 23 109 3.2 8.0 0.00 0.00 0.00 89 1008.3
20260506091006 23 215 1.6 4.8 0.00 0.00 0.00 89 1008.2
20260506090507 23 235 0.0 6.4 0.00 0.00 0.00 89 1008.2
20260506085507 23 70 1.6 9.7 0.00 0.00 0.00 89 1008.2
20260506085007 23 209 1.6 8.0 0.00 0.00 0.00 89 1008.3
20260506084521 23 181 1.6 8.0 0.00 0.00 0.00 89 1008.2
20260506084007 23 223 0.0 6.4 0.00 0.00 0.00 89 1008.2
20260506083509 23 91 3.2 6.4 0.00 0.00 0.00 89 1008.3
20260506083027 23 175 3.2 6.4 0.00 0.00 0.00 89 1008.3
20260506082508 23 184 1.6 12.9 0.00 0.00 0.00 89 1008.2
20260506082004 23 151 1.6 16.1 0.00 0.00 0.00 89 1008.2
20260506081516 23 207 4.8 16.1 0.00 0.00 0.00 89 1008.3
20260506081007 23 166 1.6 6.4 0.00 0.00 0.00 89 1008.3
20260506080504 23 223 3.2 6.4 0.00 0.00 0.00 89 1008.4
20260506073512 23 117 3.2 12.9 0.00 0.00 0.00 88 1008.7
20260506073025 23 180 1.6 6.4 0.00 0.00 0.00 88 1008.7
20260506072512 23 168 1.6 9.7 0.00 0.00 0.00 88 1008.8
20260506072008 23 169 3.2 11.3 0.00 0.00 0.00 88 1008.7
20260506071530 23 195 3.2 12.9 0.00 0.00 0.00 88 1008.8
20260506071004 23 132 3.2 12.9 0.00 0.00 0.00 88 1008.8
20260506070504 23 150 3.2 14.5 0.00 0.00 0.00 88 1008.8
20260506062009 23 183 3.2 9.7 0.00 0.00 0.00 88 1009.0
20260506061533 23 191 3.2 9.7 0.00 0.00 0.00 88 1008.9
20260506061010 23 116 3.2 9.7 0.00 0.00 0.00 88 1008.8
20260506060506 23 215 3.2 11.3 0.00 0.00 0.00 88 1008.8
20260506051005 23 159 0.0 4.8 0.00 0.00 0.00 88 1009.0
20260506050506 23 148 1.6 6.4 0.00 0.00 0.00 88 1009.0
20260506045003 23 161 1.6 4.8 0.00 0.00 0.00 87 1009.0
20260506044524 23 148 1.6 8.0 0.00 0.00 0.00 87 1008.9
20260506044005 24 154 1.6 9.7 0.00 0.00 0.00 87 1009.0
20260506043508 24 163 1.6 12.9 0.00 0.00 0.00 87 1008.9
20260506043008 24 140 3.2 14.5 0.00 0.00 0.00 86 1008.8
20260506042507 24 93 3.2 19.3 0.00 0.00 0.00 86 1008.9
20260506042004 24 89 3.2 19.3 0.00 0.00 0.00 86 1008.9
20260506041508 24 107 3.2 16.1 0.00 0.00 0.00 86 1008.8
20260506041006 24 96 4.8 16.1 0.00 0.00 0.00 86 1008.8
20260506040504 24 128 8.0 16.1 0.00 0.00 0.00 86 1008.7
20260506040033 24 113 4.8 11.3 0.00 0.00 0.00 86 1008.6
20260506035504 24 127 4.8 16.1 0.00 0.00 0.00 86 1008.6
20260506035005 24 164 4.8 16.1 0.00 0.00 0.00 86 1008.5
20260506034513 24 165 3.2 14.5 0.00 0.00 0.00 85 1008.4
20260506034005 24 258 6.4 12.9 0.00 0.00 0.00 85 1008.4
20260506033505 24 136 6.4 9.7 0.00 0.00 0.00 85 1008.3
20260506033019 24 130 4.8 14.5 0.00 0.00 0.00 85 1008.3
20260506032505 24 99 1.6 14.5 0.00 0.00 0.00 84 1008.2
20260506032001 25 126 6.4 14.5 0.00 0.00 0.00 84 1008.2
20260506031514 25 141 6.4 14.5 0.00 0.00 0.00 84 1008.0
20260506031006 25 122 6.4 14.5 0.00 0.00 0.00 84 1007.9
20260506030503 25 130 9.7 14.5 0.00 0.00 0.00 84 1007.8
20260506030009 25 144 8.0 16.1 0.00 0.00 0.00 83 1007.7
20260506025504 25 124 6.4 16.1 0.00 0.00 0.00 83 1007.7
20260506025004 25 148 6.4 14.5 0.00 0.00 0.00 83 1007.6
20260506024520 25 154 6.4 16.1 0.00 0.00 0.00 83 1007.5
20260506024005 25 139 6.4 16.1 0.00 0.00 0.00 82 1007.3
20260506023505 25 215 11.3 16.1 0.00 0.00 0.00 82 1007.3
20260506023019 25 134 9.7 17.7 0.00 0.00 0.00 82 1007.3
20260506022506 25 146 8.0 19.3 0.00 0.00 0.00 82 1007.1
20260506022005 25 130 9.7 19.3 0.00 0.00 0.00 82 1007.1
20260506021522 25 137 8.0 16.1 0.00 0.00 0.00 82 1007.0
20260506021009 25 118 8.0 12.9 0.00 0.00 0.00 81 1007.0
20260506020508 25 153 3.2 9.7 0.00 0.00 0.00 81 1007.0
20260506020008 25 121 1.6 8.0 0.00 0.00 0.00 81 1006.8
20260506015504 25 130 3.2 8.0 0.00 0.00 0.00 80 1006.7
20260506015004 25 119 1.6 8.0 0.00 0.00 0.00 80 1006.7
20260506014514 25 55 3.2 9.7 0.00 0.00 0.00 79 1006.7
20260506014004 26 137 3.2 8.0 0.00 0.00 0.00 79 1006.7
20260506013507 26 117 3.2 6.4 0.00 0.00 0.00 78 1006.8
20260506013014 26 125 3.2 4.8 0.00 0.00 0.00 78 1006.8
20260506012505 26 101 1.6 4.8 0.00 0.00 0.00 77 1006.7
20260506012009 26 107 1.6 3.2 0.00 0.00 0.00 77 1006.7
20260506011523 26 156 1.6 4.8 0.00 0.00 0.00 76 1006.8
20260506011005 26 152 1.6 6.4 0.00 0.00 0.00 76 1006.8
20260506010510 27 136 1.6 6.4 0.00 0.00 0.00 75 1006.8
20260506010022 27 132 3.2 8.0 0.00 0.00 0.00 75 1006.7
20260506005504 27 130 4.8 9.7 0.00 0.00 0.00 74 1006.7
20260506005006 27 147 6.4 9.7 0.00 0.00 0.00 74 1006.6
20260506004520 27 117 4.8 8.0 0.00 0.00 0.00 73 1006.6
20260506004006 27 133 1.6 6.4 0.00 0.00 0.00 73 1006.5
20260506003507 27 119 3.2 6.4 0.00 0.00 0.00 72 1006.4
20260506003016 28 98 3.2 11.3 0.00 0.00 0.00 71 1006.4
20260506002504 28 246 3.2 14.5 0.00 0.00 0.00 71 1006.5
20260506002005 28 144 4.8 14.5 0.00 0.00 0.00 70 1006.2
20260506001520 28 185 1.6 8.0 0.00 0.00 0.00 70 1006.5
20260506001011 28 205 1.6 11.3 0.00 0.00 0.00 70 1006.5
20260506000511 28 148 1.6 11.3 0.00 0.00 0.00 70 1006.4
20260506000023 28 297 0.0 14.5 0.00 0.00 0.00 71 1006.3
20260505235508 28 132 3.2 14.5 0.00 0.00 0.00 71 1006.1
20260505235007 28 114 6.4 12.9 0.00 0.00 0.00 70 1006.1
20260505234509 28 142 4.8 12.9 0.00 0.00 0.00 70 1006.1
20260505234005 28 160 1.6 12.9 0.00 0.00 0.00 70 1006.3
20260505233505 28 120 6.4 11.3 0.00 0.00 0.00 71 1006.3
20260505233017 28 178 4.8 14.5 0.00 0.00 0.00 70 1006.2
20260505232507 28 92 9.7 14.5 0.00 0.00 0.00 69 1006.2
20260505232005 28 142 3.2 12.9 0.00 0.00 0.00 69 1006.3
20260505231528 28 170 4.8 11.3 0.00 0.00 0.00 68 1006.2
20260505231004 28 78 4.8 11.3 0.00 0.00 0.00 68 1006.1
20260505230506 28 178 1.6 12.9 0.00 0.00 0.00 69 1006.0
20260505230028 28 219 3.2 17.7 0.00 0.00 0.00 69 1006.0
20260505225509 28 142 6.4 17.7 0.00 0.00 0.00 68 1006.0
20260505225011 28 296 4.8 14.5 0.00 0.00 0.00 67 1005.9
20260505224524 29 115 4.8 14.5 0.00 0.00 0.00 66 1006.0
20260505224007 29 222 4.8 11.3 0.00 0.00 0.00 67 1006.0
20260505223507 28 167 6.4 16.1 0.00 0.00 0.00 67 1006.0
20260505223014 28 191 4.8 17.7 0.00 0.00 0.00 68 1006.3
20260505222506 28 190 8.0 17.7 0.00 0.00 0.00 67 1006.0
20260505222006 28 146 6.4 16.1 0.00 0.00 0.00 68 1006.1
20260505221516 28 111 8.0 16.1 0.00 0.00 0.00 67 1006.1
20260505221006 29 146 4.8 17.7 0.00 0.00 0.00 67 1006.2
20260505220504 28 280 4.8 17.7 0.00 0.00 0.00 68 1006.2
20260505220019 28 260 9.7 16.1 0.00 0.00 0.00 67 1006.2
20260505215505 29 126 6.4 11.3 0.00 0.00 0.00 65 1006.2